Welcome to the New NWS' Forecast!
Most changes are behind the scenes, but click here for differences you might notice.

Regional Weather Roundup (RWR)

Issued by National Weather Service (NWS)

                            
242 
ASUS42 KTBW 222017
RWRFL 
FLORIDA REGIONAL WEATHER ROUNDUP
NATIONAL WEATHER SERVICE TAMPA BAY RUSKIN FL
400 PM EDT SAT SEP 22 2018

NOTE: "FAIR" INDICATES FEW OR NO CLOUDS BELOW 12,000 FEET WITH NO
SIGNIFICANT WEATHER AND/OR OBSTRUCTIONS TO VISIBILITY.

FLZ001>010-012>015-112-114-115-222100-
PANHANDLE FLORIDA
  
CITY           SKY/WX    TMP DP  RH WIND       PRES   REMARKS
PENSACOLA      FAIR      88  74  63 SE13      29.97F HX  96           
PENSACOLA NAS  MOSUNNY   88  75  65 SE10      29.97F HX  97           
MILTON NAS     LGT RAIN  77  73  87 SE7       29.99  FOG              
CRESTVIEW      PTSUNNY   83  70  64 S7        30.00F                  
DUKE FIELD     MOSUNNY   77  72  83 N9        29.98F                  
PANAMA CITY    FAIR      90  72  55 S7        29.96F HX  97           
APALACHICOLA   FAIR      88  75  65 SE9       29.99F HX  97           

STATION/POSITION SKY/WX   TEMP    WIND        PRES    WAVE   SWELL
                          AIR SEA DIR/SP/G            HT/PER HT/PER
                          (F)     (DEG/KT/KT) (MB)    (FT/S) (FT/S)
30.1N   87.6W              85     140/ 10/ 12 1015.2
29.2N   88.2W                 87  110/ 10/ 14 1015.1F   2/ 5   2/ 5
28.8N   86.0W              83 86  100/  8/ 10   N/A     2/ 5   2/ 5
PANAMA CITY BEAC           85 88              1015.8F
TOWER C                    83     100/ 11/ 12 1015.7F

$$
FLZ011-016>038-118-127-128-134-139-239-222100-
NORTH FLORIDA
  
CITY           SKY/WX    TMP DP  RH WIND       PRES   REMARKS
MARIANNA       FAIR      92  68  45 VRB6      29.97F HX  96           
TALLAHASSEE    PTSUNNY   92  67  43 NE7       29.99F HX  95           
PERRY          FAIR      90  68  48 NE8       29.99F                  
LIVE OAK       MOSUNNY   90  66  45 CALM      29.99F                  
CROSS CITY     FAIR      91  68  47 NE8       29.98F HX  95           
LAKE CITY      PTSUNNY   84  70  61 E5        30.00F                  
GAINESVILLE    FAIR      90  69  50 E10       30.01F                  
PALATKA        PTSUNNY   86  72  62 E14       30.00F                  
MAYPORT NAS    FAIR      87  72  60 E12       30.02F                  
JACKSONVILLE   PTSUNNY   87  72  60 E9        30.00F                  
JAX NAS        PTSUNNY   88  69  53 E13       30.01F                  
JAX CECIL      PTSUNNY   88  70  55 E7        30.01F                  
ST AUGUSTINE   FAIR      86  74  67 E15       30.02F                  
PALM COAST     MOSUNNY   84  72  65 E14       30.01F                  

STATION/POSITION SKY/WX   TEMP    WIND        PRES    WAVE   SWELL
                          AIR SEA DIR/SP/G            HT/PER HT/PER
                          (F)     (DEG/KT/KT) (MB)    (FT/S) (FT/S)
SHELL POINT      NOT AVBL
KEATON BEACH               85     240/  8/  8 1015.5F
CEDAR KEY                  87      80/  4/  5 1015.2F
FERNANDINA                 88 85              1017.6F
30.7N   81.3W                 85                N/A     3/10
MAYPORT                    83 86              1017.1F
31.4N   80.9W              82 85   80/ 10/ 12 1017.2F   3/ 8   2/ 8
ST AUGUSTINE               83 83   80/ 10/ 11 1016.9F

$$
FLZ040-043>046-052-053-057-058-063-144-222100-
INTERIOR CENTRAL FLORIDA
  
CITY           SKY/WX    TMP DP  RH WIND       PRES   REMARKS
OCALA          FAIR      89  71  55 VRB6      29.98F HX  95           
LEESBURG       FAIR      86  73  65 NE18      30.00F                  
SANFORD        PTSUNNY   87  72  60 E12       29.99F                  
ORLANDO EXEC   FAIR      89  69  51 E16G24    29.98F                  
ORLANDO INTL   PTSUNNY   88  70  55 E10       29.98F                  
KISSIMMEE      PTSUNNY   89  71  55 E12G18    29.98F HX  95           
WINTER HAVEN   FAIR      90  69  50 E12       29.99F                  
LAKELAND       MOSUNNY   90  66  45 E10       29.98F                  
SEBRING        FAIR      89  72  56 E16       29.97F THUNDER HX  95   
OKEECHOBEE     CLOUDY    82  73  74 E7        29.96S                  

$$
FLZ041-047-054-059-064-141-147-222100-
EAST CENTRAL FLORIDA
  
CITY           SKY/WX    TMP DP  RH WIND       PRES   REMARKS
ORMOND BEACH   MOSUNNY   84  73  70 E6        30.01F                  
DAYTONA BEACH  PTSUNNY   86  75  69 NE13      30.00F HX  95           
DELAND         FAIR      86  72  62 E16       29.99F                  
NEW SMYRNA BEA MOSUNNY   86  73  66 E9        30.01F                  
TITUSVILLE     MOSUNNY   90  70  51 E9        30.00F HX  95           
MELBOURNE      PTSUNNY   85  75  72 E10       29.98F                  
VERO BEACH     CLOUDY    85  75  72 E14       29.97F                  
FT PIERCE      PTSUNNY   84  76  76 E13       29.97F                  
STUART         MOSUNNY   88  75  66 E13G20    29.98F HX  97           

STATION/POSITION SKY/WX   TEMP    WIND        PRES    WAVE   SWELL
                          AIR SEA DIR/SP/G            HT/PER HT/PER
                          (F)     (DEG/KT/KT) (MB)    (FT/S) (FT/S)
28.5N   80.2W              83      70/ 12/ 14 1016.0F   3/10   2/10
28.9N   78.5W              83 85   80/ 12/ 16 1016.4F
TRIDENT PIER               84 86              1017.3F
28.4N   80.5W                 86                N/A     2/11
27.5N   80.2W                 84                N/A     4/10   2/11

$$
FLZ050-056-061-142-242-148-248-149-249-151-251-155-255-
160-260-222100-
WEST CENTRAL FLORIDA
  
CITY           SKY/WX    TMP DP  RH WIND       PRES   REMARKS
CRYSTAL RIVER  PTSUNNY   88  70  55 E7        29.97F                  
BROOKSVILLE    FAIR      89  71  55 E10       29.97F HX  95           
CLEARWATER AIR FAIR      90  70  51 SE12G17   29.96F HX  95           
ST PETE CLEARW FAIR      90  72  55 SE9       29.96F HX  97           
TAMPA INTL     PTSUNNY   93  68  43 VRB6      29.96F HX  97           
TAMPA EXEC     PTSUNNY   90  72  55 E9        29.97F HX  96           
PLANT CITY     PTSUNNY   90  68  48 E8        29.99F                  
PETER O KNIGHT PTSUNNY   90  70  51 E5        29.96F HX  95           
ST PETERSBURG  FAIR      89  72  56 E9        29.94F HX  96           
SARASOTA       FAIR      90  71  53 E12       29.93F HX  96           
VENICE         CLOUDY    90  73  58 NE7G14    29.95F HX  98           

STATION/POSITION SKY/WX   TEMP    WIND        PRES    WAVE   SWELL
                          AIR SEA DIR/SP/G            HT/PER HT/PER
                          (F)     (DEG/KT/KT) (MB)    (FT/S) (FT/S)
CLEARWATER BEACH           89 88              1014.7F
MIDDLE TAMPA BAY           86                 1014.8F
VENICE                     88 85   60/  6/ 10   N/A

$$
FLZ066-069-070-075>078-162-262-165-265-222100-
SOUTHWEST FLORIDA AND KEYS
  
CITY           SKY/WX    TMP DP  RH WIND       PRES   REMARKS
PUNTA GORDA    PTSUNNY   91  73  55 NE8       29.96F HX  99           
FT MYERS       FAIR      91  71  51 E9        29.93F THUNDER HX  97   
SOUTHWEST INTL FAIR      84  73  69 NE10      29.94F                  
NAPLES         PTSUNNY   86  75  69 S13G20    29.95S THUNDER HX  95   
MARCO ISLAND   CLOUDY    79  75  87 MISG      29.97F                  
IMMOKALEE        N/A     91  73  55 CALM      29.93F HX 100           
MARATHON       FAIR      90  75  61 SE7       29.93F HX 100           
KEY WEST NAS   PTSUNNY   89  76  65 VRB3      29.94F HX 100           
KEY WEST INTL  FAIR      88  76  67 SE7       29.94F HX  99           

STATION/POSITION SKY/WX   TEMP    WIND        PRES    WAVE   SWELL
                          AIR SEA DIR/SP/G            HT/PER HT/PER
                          (F)     (DEG/KT/KT) (MB)    (FT/S) (FT/S)
NAPLES                     87 87              1014.1F
26.0N   85.6W              83 86  100/ 10/ 12 1013.9
DRY TORTUGAS               85     110/  7/  8 1013.8F
SAND KEY                   83                 1013.9F
SOMBRERO KEY               84      70/  9/ 11 1013.2F
LONG KEY                   85 89  110/ 11/ 13 1013.7F

$$
FLZ067-068-071>074-168-172>174-222100-
SOUTHEAST FLORIDA 
  
CITY           SKY/WX    TMP DP  RH WIND       PRES   REMARKS
W PALM BEACH   PTSUNNY   87  75  67 E13G18    29.97S HX  96           
BOCA RATON     SUNNY     88  72  58 E9G16     29.96F                  
FT LAUDER-EXEC FAIR      88  75  65 E12       29.96S HX  97           
FT LAUDERDALE  PTSUNNY   86  78  77 E14       29.95F HX  98           
POMPANO BEACH  FAIR      88  74  63 E9        29.96F HX  96           
PEMBROKE PINES FAIR      91  71  51 E8        29.96F HX  97           
OPA LOCKA      FAIR      88  73  61 E7        29.96  HX  95           
MIAMI          PTSUNNY   87  75  67 SE9       29.95F HX  96           
WEST KENDALL   FAIR      87  74  64 E10       29.95F HX  95           
HOMESTEAD      FAIR      87  74  65 E7        29.94  HX  96           

STATION/POSITION SKY/WX   TEMP    WIND        PRES    WAVE   SWELL
                          AIR SEA DIR/SP/G            HT/PER HT/PER
                          (F)     (DEG/KT/KT) (MB)    (FT/S) (FT/S)
PORT EVERGLADES            86      80/  7/ 10 1014.8F
VIRGINIA KEY               85 89              1014.4F
LAKE WORTH                 84 87              1015.8F
FOWEY ROCKS                84 86   90/  7/  8 1015.0F
SETTLEMENT POINT           84      90/ 11/ 13 1014.9F

$$

  


000
ASUS42 KTBW 222017
RWRFL 
FLORIDA REGIONAL WEATHER ROUNDUP
NATIONAL WEATHER SERVICE TAMPA BAY RUSKIN FL
400 PM EDT SAT SEP 22 2018

NOTE: "FAIR" INDICATES FEW OR NO CLOUDS BELOW 12,000 FEET WITH NO
SIGNIFICANT WEATHER AND/OR OBSTRUCTIONS TO VISIBILITY.

FLZ001>010-012>015-112-114-115-222100-
PANHANDLE FLORIDA
  
CITY           SKY/WX    TMP DP  RH WIND       PRES   REMARKS
PENSACOLA      FAIR      88  74  63 SE13      29.97F HX  96           
PENSACOLA NAS  MOSUNNY   88  75  65 SE10      29.97F HX  97           
MILTON NAS     LGT RAIN  77  73  87 SE7       29.99  FOG              
CRESTVIEW      PTSUNNY   83  70  64 S7        30.00F                  
DUKE FIELD     MOSUNNY   77  72  83 N9        29.98F                  
PANAMA CITY    FAIR      90  72  55 S7        29.96F HX  97           
APALACHICOLA   FAIR      88  75  65 SE9       29.99F HX  97           

STATION/POSITION SKY/WX   TEMP    WIND        PRES    WAVE   SWELL
                          AIR SEA DIR/SP/G            HT/PER HT/PER
                          (F)     (DEG/KT/KT) (MB)    (FT/S) (FT/S)
30.1N   87.6W              85     140/ 10/ 12 1015.2
29.2N   88.2W                 87  110/ 10/ 14 1015.1F   2/ 5   2/ 5
28.8N   86.0W              83 86  100/  8/ 10   N/A     2/ 5   2/ 5
PANAMA CITY BEAC           85 88              1015.8F
TOWER C                    83     100/ 11/ 12 1015.7F

$$
FLZ011-016>038-118-127-128-134-139-239-222100-
NORTH FLORIDA
  
CITY           SKY/WX    TMP DP  RH WIND       PRES   REMARKS
MARIANNA       FAIR      92  68  45 VRB6      29.97F HX  96           
TALLAHASSEE    PTSUNNY   92  67  43 NE7       29.99F HX  95           
PERRY          FAIR      90  68  48 NE8       29.99F                  
LIVE OAK       MOSUNNY   90  66  45 CALM      29.99F                  
CROSS CITY     FAIR      91  68  47 NE8       29.98F HX  95           
LAKE CITY      PTSUNNY   84  70  61 E5        30.00F                  
GAINESVILLE    FAIR      90  69  50 E10       30.01F                  
PALATKA        PTSUNNY   86  72  62 E14       30.00F                  
MAYPORT NAS    FAIR      87  72  60 E12       30.02F                  
JACKSONVILLE   PTSUNNY   87  72  60 E9        30.00F                  
JAX NAS        PTSUNNY   88  69  53 E13       30.01F                  
JAX CECIL      PTSUNNY   88  70  55 E7        30.01F                  
ST AUGUSTINE   FAIR      86  74  67 E15       30.02F                  
PALM COAST     MOSUNNY   84  72  65 E14       30.01F                  

STATION/POSITION SKY/WX   TEMP    WIND        PRES    WAVE   SWELL
                          AIR SEA DIR/SP/G            HT/PER HT/PER
                          (F)     (DEG/KT/KT) (MB)    (FT/S) (FT/S)
SHELL POINT      NOT AVBL
KEATON BEACH               85     240/  8/  8 1015.5F
CEDAR KEY                  87      80/  4/  5 1015.2F
FERNANDINA                 88 85              1017.6F
30.7N   81.3W                 85                N/A     3/10
MAYPORT                    83 86              1017.1F
31.4N   80.9W              82 85   80/ 10/ 12 1017.2F   3/ 8   2/ 8
ST AUGUSTINE               83 83   80/ 10/ 11 1016.9F

$$
FLZ040-043>046-052-053-057-058-063-144-222100-
INTERIOR CENTRAL FLORIDA
  
CITY           SKY/WX    TMP DP  RH WIND       PRES   REMARKS
OCALA          FAIR      89  71  55 VRB6      29.98F HX  95           
LEESBURG       FAIR      86  73  65 NE18      30.00F                  
SANFORD        PTSUNNY   87  72  60 E12       29.99F                  
ORLANDO EXEC   FAIR      89  69  51 E16G24    29.98F                  
ORLANDO INTL   PTSUNNY   88  70  55 E10       29.98F                  
KISSIMMEE      PTSUNNY   89  71  55 E12G18    29.98F HX  95           
WINTER HAVEN   FAIR      90  69  50 E12       29.99F                  
LAKELAND       MOSUNNY   90  66  45 E10       29.98F                  
SEBRING        FAIR      89  72  56 E16       29.97F THUNDER HX  95   
OKEECHOBEE     CLOUDY    82  73  74 E7        29.96S                  

$$
FLZ041-047-054-059-064-141-147-222100-
EAST CENTRAL FLORIDA
  
CITY           SKY/WX    TMP DP  RH WIND       PRES   REMARKS
ORMOND BEACH   MOSUNNY   84  73  70 E6        30.01F                  
DAYTONA BEACH  PTSUNNY   86  75  69 NE13      30.00F HX  95           
DELAND         FAIR      86  72  62 E16       29.99F                  
NEW SMYRNA BEA MOSUNNY   86  73  66 E9        30.01F                  
TITUSVILLE     MOSUNNY   90  70  51 E9        30.00F HX  95           
MELBOURNE      PTSUNNY   85  75  72 E10       29.98F                  
VERO BEACH     CLOUDY    85  75  72 E14       29.97F                  
FT PIERCE      PTSUNNY   84  76  76 E13       29.97F                  
STUART         MOSUNNY   88  75  66 E13G20    29.98F HX  97           

STATION/POSITION SKY/WX   TEMP    WIND        PRES    WAVE   SWELL
                          AIR SEA DIR/SP/G            HT/PER HT/PER
                          (F)     (DEG/KT/KT) (MB)    (FT/S) (FT/S)
28.5N   80.2W              83      70/ 12/ 14 1016.0F   3/10   2/10
28.9N   78.5W              83 85   80/ 12/ 16 1016.4F
TRIDENT PIER               84 86              1017.3F
28.4N   80.5W                 86                N/A     2/11
27.5N   80.2W                 84                N/A     4/10   2/11

$$
FLZ050-056-061-142-242-148-248-149-249-151-251-155-255-
160-260-222100-
WEST CENTRAL FLORIDA
  
CITY           SKY/WX    TMP DP  RH WIND       PRES   REMARKS
CRYSTAL RIVER  PTSUNNY   88  70  55 E7        29.97F                  
BROOKSVILLE    FAIR      89  71  55 E10       29.97F HX  95           
CLEARWATER AIR FAIR      90  70  51 SE12G17   29.96F HX  95           
ST PETE CLEARW FAIR      90  72  55 SE9       29.96F HX  97           
TAMPA INTL     PTSUNNY   93  68  43 VRB6      29.96F HX  97           
TAMPA EXEC     PTSUNNY   90  72  55 E9        29.97F HX  96           
PLANT CITY     PTSUNNY   90  68  48 E8        29.99F                  
PETER O KNIGHT PTSUNNY   90  70  51 E5        29.96F HX  95           
ST PETERSBURG  FAIR      89  72  56 E9        29.94F HX  96           
SARASOTA       FAIR      90  71  53 E12       29.93F HX  96           
VENICE         CLOUDY    90  73  58 NE7G14    29.95F HX  98           

STATION/POSITION SKY/WX   TEMP    WIND        PRES    WAVE   SWELL
                          AIR SEA DIR/SP/G            HT/PER HT/PER
                          (F)     (DEG/KT/KT) (MB)    (FT/S) (FT/S)
CLEARWATER BEACH           89 88              1014.7F
MIDDLE TAMPA BAY           86                 1014.8F
VENICE                     88 85   60/  6/ 10   N/A

$$
FLZ066-069-070-075>078-162-262-165-265-222100-
SOUTHWEST FLORIDA AND KEYS
  
CITY           SKY/WX    TMP DP  RH WIND       PRES   REMARKS
PUNTA GORDA    PTSUNNY   91  73  55 NE8       29.96F HX  99           
FT MYERS       FAIR      91  71  51 E9        29.93F THUNDER HX  97   
SOUTHWEST INTL FAIR      84  73  69 NE10      29.94F                  
NAPLES         PTSUNNY   86  75  69 S13G20    29.95S THUNDER HX  95   
MARCO ISLAND   CLOUDY    79  75  87 MISG      29.97F                  
IMMOKALEE        N/A     91  73  55 CALM      29.93F HX 100           
MARATHON       FAIR      90  75  61 SE7       29.93F HX 100           
KEY WEST NAS   PTSUNNY   89  76  65 VRB3      29.94F HX 100           
KEY WEST INTL  FAIR      88  76  67 SE7       29.94F HX  99           

STATION/POSITION SKY/WX   TEMP    WIND        PRES    WAVE   SWELL
                          AIR SEA DIR/SP/G            HT/PER HT/PER
                          (F)     (DEG/KT/KT) (MB)    (FT/S) (FT/S)
NAPLES                     87 87              1014.1F
26.0N   85.6W              83 86  100/ 10/ 12 1013.9
DRY TORTUGAS               85     110/  7/  8 1013.8F
SAND KEY                   83                 1013.9F
SOMBRERO KEY               84      70/  9/ 11 1013.2F
LONG KEY                   85 89  110/ 11/ 13 1013.7F

$$
FLZ067-068-071>074-168-172>174-222100-
SOUTHEAST FLORIDA 
  
CITY           SKY/WX    TMP DP  RH WIND       PRES   REMARKS
W PALM BEACH   PTSUNNY   87  75  67 E13G18    29.97S HX  96           
BOCA RATON     SUNNY     88  72  58 E9G16     29.96F                  
FT LAUDER-EXEC FAIR      88  75  65 E12       29.96S HX  97           
FT LAUDERDALE  PTSUNNY   86  78  77 E14       29.95F HX  98           
POMPANO BEACH  FAIR      88  74  63 E9        29.96F HX  96           
PEMBROKE PINES FAIR      91  71  51 E8        29.96F HX  97           
OPA LOCKA      FAIR      88  73  61 E7        29.96  HX  95           
MIAMI          PTSUNNY   87  75  67 SE9       29.95F HX  96           
WEST KENDALL   FAIR      87  74  64 E10       29.95F HX  95           
HOMESTEAD      FAIR      87  74  65 E7        29.94  HX  96           

STATION/POSITION SKY/WX   TEMP    WIND        PRES    WAVE   SWELL
                          AIR SEA DIR/SP/G            HT/PER HT/PER
                          (F)     (DEG/KT/KT) (MB)    (FT/S) (FT/S)
PORT EVERGLADES            86      80/  7/ 10 1014.8F
VIRGINIA KEY               85 89              1014.4F
LAKE WORTH                 84 87              1015.8F
FOWEY ROCKS                84 86   90/  7/  8 1015.0F
SETTLEMENT POINT           84      90/ 11/ 13 1014.9F

$$